Le nostre stazioni meteo in Italia

Pubblicità
Il mio iltempo24.it
Firenze, Italia (16171): Temperatura & dewpoint: 30.05.2020 22:00:00 - 05.06.2020 22:00:00 (CEST)Firenze, Italia (16171): reduced air pressure: 30.05.2020 22:00:00 - 05.06.2020 22:00:00 (CEST)Firenze, Italia (16171): precipitazioni: 30.05.2020 22:00:00 - 05.06.2020 22:00:00 (CEST)
Data & Tempo tt [°C] td [°C] ppp [hPa] rr [mm]
05.06.2020 22:00:00 - - - -
05.06.2020 21:00:00 21,1 16,4 1003,2 -
05.06.2020 20:00:00 22,3 16,9 1002,5 -
05.06.2020 19:00:00 23,3 17,7 1001,6 -
05.06.2020 18:00:00 24,1 17,5 1001,1 -
05.06.2020 17:00:00 24,4 18,0 1001,0 -
05.06.2020 16:00:00 24,6 18,0 1000,6 -
05.06.2020 15:00:00 24,9 18,8 1000,1 -
05.06.2020 14:00:00 24,8 19,3 999,9 -
05.06.2020 13:00:00 22,5 20,7 999,7 -
05.06.2020 12:00:00 22,1 20,7 999,8 -
05.06.2020 11:00:00 22,8 18,9 999,0 -
05.06.2020 10:00:00 20,1 19,2 998,6 -
05.06.2020 09:00:00 18,7 18,6 999,1 -
05.06.2020 08:00:00 17,7 17,6 998,5 -
05.06.2020 07:00:00 17,0 16,9 998,1 -
05.06.2020 06:00:00 16,7 16,6 997,7 -
05.06.2020 05:00:00 17,4 17,3 997,9 -
05.06.2020 04:00:00 17,7 17,6 997,8 -
05.06.2020 03:00:00 17,8 17,7 997,8 -
05.06.2020 02:00:00 18,1 18,0 998,2 -
05.06.2020 01:00:00 18,0 17,3 998,4 -
05.06.2020 00:00:00 20,1 19,7 997,4 -
04.06.2020 23:00:00 21,1 20,0 997,8 -
04.06.2020 22:00:00 21,4 20,0 997,9 -
04.06.2020 21:00:00 21,7 20,1 998,2 -
04.06.2020 20:00:00 22,1 20,1 999,0 -
04.06.2020 19:00:00 22,4 19,1 999,3 -
04.06.2020 18:00:00 22,6 18,5 1000,1 -
04.06.2020 17:00:00 21,3 19,7 1000,9 -
04.06.2020 16:00:00 20,1 19,7 1001,9 -
04.06.2020 15:00:00 20,3 20,1 1002,8 -
04.06.2020 14:00:00 20,0 19,5 1003,2 -
04.06.2020 13:00:00 20,2 19,3 1004,1 -
04.06.2020 12:00:00 20,9 19,1 1004,2 -
04.06.2020 11:00:00 20,0 18,4 1004,5 -
04.06.2020 10:00:00 19,8 18,2 1005,3 -
04.06.2020 09:00:00 19,3 17,9 1005,6 -
04.06.2020 08:00:00 18,2 17,2 1005,8 0,0
04.06.2020 07:00:00 17,2 16,3 1005,8 -
04.06.2020 06:00:00 17,2 15,8 1006,2 -
04.06.2020 05:00:00 17,2 15,8 1006,5 -
04.06.2020 04:00:00 17,1 15,7 1007,2 -
04.06.2020 03:00:00 16,3 15,1 1007,9 -
04.06.2020 02:00:00 17,3 15,9 1008,1 0,0
04.06.2020 01:00:00 18,0 16,4 1008,7 -
04.06.2020 00:00:00 18,6 16,3 1009,1 -
03.06.2020 23:00:00 19,6 16,9 1009,1 -
03.06.2020 22:00:00 20,3 16,5 1008,8 -
03.06.2020 21:00:00 21,6 16,9 1008,7 -
03.06.2020 20:00:00 23,0 17,4 1008,1 0,0
03.06.2020 19:00:00 23,9 16,8 1008,1 -
03.06.2020 18:00:00 24,9 17,3 1008,3 -
03.06.2020 17:00:00 24,7 16,1 1008,8 -
03.06.2020 16:00:00 26,6 17,9 1009,2 -
03.06.2020 15:00:00 26,2 19,0 1009,8 -
03.06.2020 14:00:00 26,1 19,7 1010,2 0,0
03.06.2020 13:00:00 24,6 20,2 1010,8 -
03.06.2020 12:00:00 23,4 19,1 1011,2 -
03.06.2020 11:00:00 22,8 19,9 1011,5 -
03.06.2020 10:00:00 21,5 19,7 1011,6 -
03.06.2020 09:00:00 19,7 19,0 1011,9 -
03.06.2020 08:00:00 18,8 18,3 1012,1 0,0
03.06.2020 07:00:00 18,1 17,6 1012,0 -
03.06.2020 06:00:00 18,1 17,4 1011,9 -
03.06.2020 05:00:00 18,1 17,7 1011,8 -
03.06.2020 04:00:00 18,1 17,4 1012,2 -
03.06.2020 03:00:00 18,3 17,3 1012,3 -
03.06.2020 02:00:00 19,0 18,3 1012,7 0,0
03.06.2020 01:00:00 19,2 18,0 1012,7 -
03.06.2020 00:00:00 19,9 18,1 1012,6 -
02.06.2020 23:00:00 20,8 17,7 1013,0 -
02.06.2020 22:00:00 21,1 14,9 1012,7 -
02.06.2020 21:00:00 22,3 14,3 1011,9 -
02.06.2020 20:00:00 23,5 14,7 1011,8 0,0
02.06.2020 19:00:00 24,8 15,1 1011,5 -
02.06.2020 18:00:00 26,8 16,1 1011,5 -
02.06.2020 17:00:00 27,6 15,9 1011,7 -
02.06.2020 16:00:00 29,0 16,2 1012,2 -
02.06.2020 15:00:00 28,6 14,7 1012,9 -
02.06.2020 14:00:00 28,1 15,3 1013,5 0,0
02.06.2020 13:00:00 27,1 15,7 1014,1 -
02.06.2020 12:00:00 25,1 13,9 1014,9 -
02.06.2020 11:00:00 24,3 14,9 1015,3 -
02.06.2020 10:00:00 21,7 15,2 1015,6 -
02.06.2020 09:00:00 18,0 12,8 1016,1 -
02.06.2020 08:00:00 17,4 13,8 1016,0 0,0
02.06.2020 07:00:00 13,3 12,0 1016,5 -
02.06.2020 06:00:00 12,8 11,2 1016,6 -
02.06.2020 05:00:00 12,9 10,9 1016,7 -
02.06.2020 04:00:00 13,5 11,0 1017,3 -
02.06.2020 03:00:00 14,7 11,4 1017,6 -
02.06.2020 02:00:00 15,4 11,4 1017,6 0,0
02.06.2020 01:00:00 16,3 10,6 1017,3 -
02.06.2020 00:00:00 19,1 11,6 1017,1 -
01.06.2020 23:00:00 21,2 12,0 1016,9 -
01.06.2020 22:00:00 21,9 12,1 1016,4 -
01.06.2020 21:00:00 23,5 13,3 1015,8 -
01.06.2020 20:00:00 24,4 13,8 1015,7 0,0
01.06.2020 19:00:00 25,1 14,5 1015,8 -
01.06.2020 18:00:00 25,3 15,0 1015,9 -
01.06.2020 17:00:00 25,4 15,1 1016,1 -
01.06.2020 16:00:00 25,6 15,2 1016,4 -
01.06.2020 15:00:00 25,8 15,4 1016,4 -
01.06.2020 14:00:00 25,3 15,5 1016,9 0,0
01.06.2020 13:00:00 24,6 15,2 1017,2 -
01.06.2020 12:00:00 23,9 14,5 1017,2 -
01.06.2020 11:00:00 23,5 16,5 1017,3 -
01.06.2020 10:00:00 21,1 18,2 1017,4 -
01.06.2020 09:00:00 17,2 15,8 1017,7 -
01.06.2020 08:00:00 15,9 15,0 1017,9 0,0
01.06.2020 07:00:00 13,1 12,8 1017,9 -
01.06.2020 06:00:00 12,0 11,1 1017,9 -
01.06.2020 05:00:00 12,7 11,7 1017,5 -
01.06.2020 04:00:00 13,2 12,1 1017,4 -
01.06.2020 03:00:00 14,1 12,6 1017,3 -
01.06.2020 02:00:00 15,3 13,6 1017,1 0,0
01.06.2020 01:00:00 15,8 13,6 1017,0 -
01.06.2020 00:00:00 15,9 12,4 1016,6 -
31.05.2020 23:00:00 17,5 12,6 1016,1 -
31.05.2020 22:00:00 18,5 12,7 1015,3 -
31.05.2020 21:00:00 20,3 14,1 1014,7 -
31.05.2020 20:00:00 22,0 15,0 1014,2 0,0
31.05.2020 19:00:00 22,6 15,1 1014,1 -
31.05.2020 18:00:00 22,8 14,0 1014,4 -
31.05.2020 17:00:00 23,5 15,2 1014,7 -
31.05.2020 16:00:00 23,3 14,8 1014,9 -
31.05.2020 15:00:00 23,7 14,3 1015,0 -
31.05.2020 14:00:00 22,5 14,5 1015,6 0,0
31.05.2020 13:00:00 20,3 13,2 1016,2 -
31.05.2020 12:00:00 18,6 14,4 1016,6 -
31.05.2020 11:00:00 16,5 14,6 1017,1 -
31.05.2020 10:00:00 15,7 14,2 1017,1 -
31.05.2020 09:00:00 15,3 13,6 1017,0 -
31.05.2020 08:00:00 14,1 12,8 1016,9 0,0
31.05.2020 07:00:00 13,0 11,9 1016,7 -
31.05.2020 06:00:00 12,4 11,1 1016,3 -
31.05.2020 05:00:00 13,0 11,5 1016,3 -
31.05.2020 04:00:00 13,0 11,5 1016,5 -
31.05.2020 03:00:00 13,4 11,8 1016,6 -
31.05.2020 02:00:00 14,8 12,9 1016,8 0,0
31.05.2020 01:00:00 14,8 11,3 1016,7 -
31.05.2020 00:00:00 16,0 11,1 1016,4 -
30.05.2020 23:00:00 17,5 11,5 1016,3 -
30.05.2020 22:00:00 18,6 11,8 1015,7 -

tt = Temperatura
td = dewpoint
ppp = reduced air pressure
rr = precipitazioni

Stazioni seguenti

WeatherPro
AMSI
MeteoEarth